Terminal Aerodrome Forecast
Issued by NWS Cleveland, OH

Home | Current Version | Previous Version | Graphics & Text | Print | Product List | Glossary On
Versions: 1 2 3 4 5 6 7 8 9 10 11 12 13 14 15 16 17 18 19 20 21
000
FTUS41 KCLE 162300
TAFYNG
TAF
KYNG 162338Z 1700/1724 24012KT 6SM -RA SCT008 OVC012
     FM170300 25012KT P6SM OVC008
     FM171300 25012G22KT P6SM OVC012
     FM171800 26012G22KT P6SM OVC020=

USA.gov is the U.S. government's official web portal to all federal, state and local government web resources and services.